{"data":{"norad_id":64805,"intl_designator":"2025-150R","name":"STARLINK-34624","alt_names":[],"object_type":"PAYLOAD","status":"ACTIVE","operator":null,"country":"US","launch_date":"2025-07-16","launch_site_code":"AFWTR","launch_vehicle":null,"mission":null,"orbit_class":"UNKNOWN","rcs_meters":null,"size_class":null,"mass_kg":null,"dimensions":null,"purposes":["comms"],"wikipedia_slug":null,"has_3d_model":false,"image_url":null,"decayed_at":null,"tle_current":{"epoch":"2026-09-20T11:49:27.126048Z","epoch_age_seconds":128579,"freshness":"FRESH","line1":"1 64805U 25150R   26263.49267507  .00004306  00000+0  36839-3 0  9999","line2":"2 64805  70.0029   3.3974 0003193 269.5744  90.5049 14.98332958 65697","mean_motion":14.98332958,"eccentricity":0.0003193,"inclination_deg":70.0029,"raan_deg":3.3974,"arg_perigee_deg":269.5744,"mean_anomaly_deg":90.5049,"bstar":0.00036839,"rev_number":6569,"period_min":96.106809391828,"perigee_km":569.82754991914,"apogee_km":574.2659372578,"semimajor_km":6950.1837435885,"source":"CELESTRAK","updated_at":"2026-09-21T09:00:35.445714Z"}}}